[[{"header":{"parameterUnit":"m.s-1","parameterCategory":1,"la1":30.2991,"la2":30.254,"lo1":-89.0895,"lo2":-89.0444,"dy":0.0017,"dx":0.0017,"nx":28,"ny":28,"refTime":"2024-02-12T09:00:00:Z","depth":0,"parameterNumber":2,"parameterNumberName":"U-component_of_WINDS"},"data":[0,0,0,0,0,0,0,0,0,0,0,0,0,0,0,0,0,0,0,0,0,0,0,0,0,0,0,0,0,0,0,0,0,0,0,0,0,0,0,0,0,0,0,0,0,0,0,0,0,0,0,0,0,0,0,0,0,0,8.0788,8.0789,0,8.0887,8.0888,8.0889,8.0828,8.0825,8.0822,8.082,8.0926,8.0932,8.0937,0,0,0,0,0,0,0,0,0,0,0,0,0,8.0553,8.0558,8.0788,8.0789,8.079,8.0887,8.0888,8.0889,8.0829,8.0825,8.0822,8.0818,8.0925,8.0931,8.0938,0,0,0,0,0,0,0,0,0,0,0,0,0,8.0654,8.056,8.0788,8.0771,8.0771,8.0886,8.0888,8.089,8.0829,8.0825,8.0821,8.0817,8.0922,8.093,8.0939,8.1077,0,0,8.0964,8.0968,0,0,0,0,0,0,0,0,8.0649,8.0663,8.0773,8.0773,8.0772,8.084,8.0844,8.0953,8.083,8.0807,8.0819,8.0814,8.0902,8.0911,8.094,8.1082,8.1087,8.0965,8.097,8.0973,8.0976,0,0,0,0,0,0,0,8.0642,8.0658,8.0827,8.0774,8.0774,8.0762,8.0771,8.0865,8.0878,8.0809,8.0805,8.0817,8.0901,8.0932,8.0942,8.1088,8.0965,8.0972,8.0977,8.098,8.1354,8.1358,0,0,0,0,0,0,8.0635,8.0653,8.0824,8.083,8.0698,8.0769,8.078,8.0823,8.0877,8.088,8.0821,8.0814,8.092,8.0932,8.0945,8.1114,8.0973,8.0981,8.0986,8.1349,8.1355,8.136,0,0,0,0,0,0,8.063,8.0651,8.082,8.074,8.0761,8.0778,8.0827,8.0827,8.0858,8.0885,8.0888,8.0849,8.0917,8.0934,8.1045,8.1116,8.0985,8.0992,8.1343,8.1351,8.1357,8.145,0,0,0,0,0,0,8.0624,8.0649,8.07,8.0742,8.0765,8.0916,8.0831,8.0832,8.0872,8.0864,8.0913,8.0917,8.0915,8.1033,8.1054,8.1125,8.0999,8.1337,8.1346,8.1355,8.144,8.1459,8.1475,0,0,0,0,0,8.0616,8.0723,8.0703,8.0724,8.0829,8.092,8.0934,8.0927,8.0878,8.0931,8.0949,8.0916,8.1105,8.1045,8.1068,8.1143,8.1332,8.1344,8.1354,8.1432,8.1455,8.1475,0,0,0,0,0,0,8.069,8.0728,8.0707,8.083,8.0872,8.091,8.0976,8.0952,8.101,8.1001,8.0992,8.1003,8.1121,8.1143,8.1075,8.1282,8.1211,8.1227,8.1263,8.1285,8.1302,8.1295,8.1006,0,0,0,0,0,8.0721,8.079,8.082,8.0926,8.0948,8.0959,8.0998,8.0989,8.1034,8.1052,8.1078,8.1124,8.1194,8.1241,8.1306,8.1443,8.1455,8.1506,8.1524,8.1538,8.1553,8.163,8.1655,8.1396,8.1396,8.1396,0,0,8.0785,8.0814,8.0858,8.0942,8.0973,8.1048,8.0974,8.1055,8.1111,8.1065,8.1172,8.1193,8.1244,8.137,8.1427,8.1392,8.1627,8.1552,8.1563,8.157,8.1644,8.1669,8.169,8.1404,8.1403,8.1401,0,0,8.094,8.0968,8.1061,8.1095,8.1144,8.115,8.1173,8.1215,8.1227,8.1334,8.1302,8.137,8.149,8.1529,8.1564,8.1738,8.1711,8.176,8.1852,8.1927,8.1948,8.1966,8.2031,8.2054,8.1774,8.1774,8.1774,0,8.1015,8.1123,8.1112,8.1197,8.1236,8.1196,8.1292,8.1326,8.1395,8.1424,8.1384,8.1536,8.1567,8.1703,8.1746,8.1775,8.1803,8.1754,8.1945,8.1963,8.198,8.2042,8.2066,8.178,8.1779,8.1778,8.1778,0,8.1214,8.129,8.136,8.1426,8.1473,8.1563,8.1568,8.1617,8.1606,8.1618,8.173,8.1766,8.184,8.1872,8.1861,8.2008,8.1985,8.1945,8.1875,8.2011,8.2069,8.2092,8.1788,8.1786,8.1784,8.1783,0,0,8.1419,8.1479,8.1505,8.1536,8.1589,8.1649,8.1738,8.1809,8.1853,8.1903,8.198,8.2084,8.2049,8.2089,8.2083,8.2149,8.2288,8.2102,8.2103,8.2137,8.2456,8.2487,8.2514,8.227,8.2274,8.2278,8.2452,0,8.1579,8.1733,8.1727,8.1873,8.1945,8.191,8.1989,8.2031,8.2045,8.2111,8.2127,8.2202,8.2148,8.2173,8.2237,8.2258,8.2352,8.2245,8.2345,8.2349,8.2335,8.2544,8.2576,8.2739,8.2475,8.2478,8.2481,0,8.1787,8.1843,8.1995,8.204,8.207,8.214,8.2207,8.2269,8.2317,8.2323,8.237,8.2354,8.2448,8.2374,8.2506,8.2433,8.2474,8.2491,8.2497,8.2507,8.2424,8.2562,8.279,8.2815,8.2516,8.2514,8.2511,0,8.1925,8.2038,8.2145,8.2172,8.2226,8.2277,8.2302,8.2346,8.239,8.2449,8.2478,8.2548,8.2587,8.2643,8.2647,8.2592,8.2782,8.2707,8.2792,8.2792,8.2835,8.2832,8.3074,8.2858,8.2857,8.2857,8.2856,0,8.2106,8.2202,8.2208,8.2274,8.2381,8.2374,8.2481,8.2501,8.2542,8.2613,8.2587,8.2655,8.2656,8.2727,8.2731,8.2841,8.2859,8.2869,8.2869,8.2872,8.2871,8.29,8.289,8.2863,8.2862,8.2861,8.286,0,8.2279,8.2286,8.2401,8.2442,8.2455,8.2532,8.2569,8.2633,8.2645,8.2737,8.2758,8.2778,8.286,8.287,8.2965,8.2969,8.3103,8.309,8.3086,8.3085,8.317,8.3163,8.3441,8.3478,8.3235,8.3237,8.3239,0,8.2395,8.2468,8.2517,8.2562,8.259,8.2663,8.2708,8.2705,8.2754,8.2816,8.2874,8.2953,8.3016,8.315,8.3175,8.3249,8.3239,8.3332,8.325,8.3252,8.3244,8.3241,8.3249,8.3348,8.3351,8.3353,8.3354,0,8.2602,8.2603,8.2667,8.2735,8.2789,8.2842,8.2892,8.2931,8.2935,8.2991,8.3074,8.3123,8.3221,8.3302,8.3375,8.3404,8.3382,8.338,8.3404,8.3409,8.3405,8.3411,8.3131,8.3374,8.3372,8.337,8.3369,8.3369,8.2752,8.2816,8.2861,8.2935,8.2972,8.302,8.3083,8.3103,8.3171,8.325,8.3245,8.3337,8.3387,8.3483,8.3518,8.3592,8.3562,8.3596,8.3605,8.3614,8.3624,8.3391,8.3605,8.3604,8.3604,8.3604,8.3603,0,8.296,8.2987,8.3055,8.3126,8.3185,8.3156,8.3211,8.3263,8.3344,8.3391,8.3454,8.3551,8.3629,8.3661,8.3738,8.3792,8.3784,8.3813,8.381,8.3818,8.3645,8.3618,8.3818,8.3818,8.3818,8.3818,8.3818,8.3818,8.3075,8.3183,8.3189,8.3316,8.3343,8.3432,8.3466,8.3512,8.3549,8.3658,8.3723,8.3742,8.3784,8.3865,8.3937,8.3944,8.3975,8.4009,8.4013,8.3851,8.383,8.3809,8.3783,8.4015,8.4015,8.4179,8.4181,8.4182]},{"header":{"parameterUnit":"m.s-1","parameterCategory":1,"la1":30.2991,"la2":30.254,"lo1":-89.0895,"lo2":-89.0444,"dy":0.0017,"dx":0.0017,"nx":28,"ny":28,"refTime":"2024-02-12T09:00:00:Z","depth":0,"parameterNumber":3,"parameterNumberName":"V-component_of_WINDS"},"data":[0,0,0,0,0,0,0,0,0,0,0,0,0,0,0,0,0,0,0,0,0,0,0,0,0,0,0,0,0,0,0,0,0,0,0,0,0,0,0,0,0,0,0,0,0,0,0,0,0,0,0,0,0,0,0,0,0,0,-0.9907,-0.9907,0,-0.9918,-0.9918,-0.9918,-0.9964,-0.9965,-0.9966,-0.9967,-0.9976,-0.9976,-0.9975,0,0,0,0,0,0,0,0,0,0,0,0,0,-0.9926,-0.9926,-0.9907,-0.9907,-0.9907,-0.9918,-0.9918,-0.9918,-0.9964,-0.9965,-0.9967,-0.9968,-0.9977,-0.9976,-0.9975,0,0,0,0,0,0,0,0,0,0,0,0,0,-0.9925,-0.9926,-0.9907,-0.9931,-0.9934,-0.9918,-0.9918,-0.9918,-0.9964,-0.9965,-0.9967,-0.9968,-0.9977,-0.9976,-0.9975,-0.9935,0,0,-0.9971,-0.9971,0,0,0,0,0,0,0,0,-0.9925,-0.9925,-0.9928,-0.993,-0.9932,-0.9941,-0.9928,-0.9923,-0.9963,-0.9952,-0.9967,-0.9969,-0.9963,-0.9963,-0.9962,-0.9935,-0.9936,-0.9971,-0.997,-0.997,-0.9969,0,0,0,0,0,0,0,-0.9925,-0.9924,-0.9911,-0.9928,-0.9931,-0.9942,-0.9944,-0.9927,-0.9948,-0.9953,-0.9957,-0.9957,-0.9965,-0.9963,-0.9962,-0.9936,-0.9971,-0.997,-0.9969,-0.9969,-0.9879,-0.9878,0,0,0,0,0,0,-0.9922,-0.9924,-0.9911,-0.9911,-0.9933,-0.994,-0.9942,-0.9937,-0.9949,-0.9952,-0.9956,-0.996,-0.9964,-0.9963,-0.9963,-0.9918,-0.997,-0.9969,-0.9968,-0.9881,-0.9879,-0.9877,0,0,0,0,0,0,-0.9922,-0.992,-0.991,-0.9919,-0.9918,-0.9938,-0.9932,-0.9936,-0.9934,-0.9951,-0.9955,-0.995,-0.9965,-0.9964,-0.9942,-0.9919,-0.9968,-0.9967,-0.9883,-0.9881,-0.9878,-0.9827,0,0,0,0,0,0,-0.9923,-0.992,-0.9905,-0.9918,-0.9918,-0.9889,-0.993,-0.9935,-0.9932,-0.9937,-0.9946,-0.9949,-0.9966,-0.9943,-0.9941,-0.9918,-0.9966,-0.9885,-0.9882,-0.9879,-0.9831,-0.9823,-0.9817,0,0,0,0,0,-0.9923,-0.989,-0.9904,-0.9902,-0.9899,-0.9888,-0.9888,-0.9908,-0.993,-0.9915,-0.9926,-0.9949,-0.9922,-0.9941,-0.9938,-0.9915,-0.9887,-0.9883,-0.9879,-0.9834,-0.9825,-0.9817,0,0,0,0,0,0,-0.9872,-0.9892,-0.9908,-0.9878,-0.9881,-0.9896,-0.9877,-0.9897,-0.9894,-0.9898,-0.9924,-0.9926,-0.99,-0.9905,-0.9926,-0.9878,-0.9908,-0.9904,-0.9875,-0.9866,-0.9859,-0.9858,-0.9965,0,0,0,0,0,-0.9858,-0.9847,-0.9865,-0.9836,-0.9837,-0.9857,-0.9853,-0.9869,-0.9873,-0.9874,-0.9884,-0.9886,-0.9879,-0.9873,-0.9867,-0.9833,-0.9836,-0.9816,-0.9808,-0.9802,-0.9798,-0.9782,-0.9773,-0.9865,-0.9865,-0.9865,0,0,-0.9827,-0.9836,-0.9828,-0.9826,-0.9831,-0.9819,-0.9858,-0.9843,-0.9835,-0.9872,-0.9852,-0.9859,-0.9864,-0.9836,-0.9824,-0.9839,-0.9774,-0.9798,-0.9793,-0.9792,-0.9777,-0.9768,-0.976,-0.9862,-0.9863,-0.9863,0,0,-0.9765,-0.9771,-0.9749,-0.9753,-0.976,-0.9774,-0.9768,-0.978,-0.9787,-0.9768,-0.9795,-0.9786,-0.9772,-0.9775,-0.9774,-0.9716,-0.9737,-0.9714,-0.9676,-0.966,-0.9652,-0.9646,-0.9626,-0.9618,-0.9709,-0.9709,-0.9709,0,-0.9726,-0.971,-0.9735,-0.9719,-0.9718,-0.9752,-0.973,-0.9733,-0.9736,-0.9735,-0.9753,-0.9737,-0.9743,-0.9717,-0.9703,-0.9701,-0.9696,-0.9712,-0.9651,-0.9645,-0.964,-0.9621,-0.9613,-0.9706,-0.9707,-0.9707,-0.9707,0,-0.9662,-0.9651,-0.9632,-0.9636,-0.9633,-0.9614,-0.9636,-0.963,-0.9647,-0.9659,-0.9639,-0.9648,-0.9644,-0.964,-0.9655,-0.9616,-0.9626,-0.9647,-0.9678,-0.9628,-0.9611,-0.9603,-0.9702,-0.9703,-0.9704,-0.9705,0,0,-0.9566,-0.9586,-0.9579,-0.9582,-0.9593,-0.9585,-0.9568,-0.9566,-0.9561,-0.9563,-0.955,-0.9538,-0.9559,-0.9558,-0.9575,-0.9561,-0.9516,-0.9584,-0.9585,-0.9571,-0.9474,-0.9457,-0.9449,-0.953,-0.9529,-0.9528,-0.9473,0,-0.9508,-0.9481,-0.9503,-0.9472,-0.9462,-0.9496,-0.9482,-0.9487,-0.9498,-0.9492,-0.9504,-0.9496,-0.9523,-0.9524,-0.9511,-0.9523,-0.9496,-0.9528,-0.9518,-0.9517,-0.9515,-0.9439,-0.9422,-0.937,-0.9467,-0.9466,-0.9465,0,-0.9435,-0.9436,-0.9404,-0.9419,-0.9415,-0.9402,-0.9403,-0.9396,-0.9403,-0.9413,-0.9413,-0.9435,-0.942,-0.9451,-0.9431,-0.9452,-0.945,-0.9456,-0.9454,-0.9454,-0.9488,-0.9437,-0.9354,-0.9346,-0.9454,-0.9455,-0.9456,0,-0.937,-0.9362,-0.9343,-0.9344,-0.9361,-0.9351,-0.9357,-0.9366,-0.9364,-0.9365,-0.9364,-0.9362,-0.9362,-0.936,-0.9381,-0.9402,-0.9359,-0.9391,-0.9366,-0.9366,-0.9355,-0.9355,-0.9271,-0.9354,-0.9354,-0.9354,-0.9354,0,-0.9302,-0.9281,-0.9313,-0.9301,-0.9279,-0.9306,-0.9283,-0.9293,-0.9301,-0.9292,-0.9321,-0.9311,-0.9339,-0.9333,-0.9349,-0.9331,-0.933,-0.9337,-0.9342,-0.9335,-0.9334,-0.9333,-0.9337,-0.9352,-0.9352,-0.9353,-0.9353,0,-0.9224,-0.9245,-0.9226,-0.9244,-0.9248,-0.9231,-0.9247,-0.9236,-0.9251,-0.9238,-0.9237,-0.9259,-0.9253,-0.9274,-0.9271,-0.9282,-0.9255,-0.9266,-0.9253,-0.9256,-0.923,-0.9233,-0.9142,-0.9132,-0.9221,-0.922,-0.9219,0,-0.9179,-0.9164,-0.9182,-0.9178,-0.9183,-0.9176,-0.9175,-0.9201,-0.9198,-0.9207,-0.9195,-0.9192,-0.9191,-0.918,-0.9196,-0.9194,-0.9205,-0.9173,-0.9205,-0.9199,-0.9205,-0.9206,-0.9205,-0.9167,-0.9165,-0.9165,-0.9164,0,-0.9098,-0.911,-0.9107,-0.9108,-0.9105,-0.9107,-0.9111,-0.9106,-0.9135,-0.913,-0.9125,-0.9124,-0.9123,-0.9119,-0.9121,-0.9128,-0.9151,-0.9154,-0.9148,-0.9141,-0.9134,-0.9138,-0.9235,-0.9156,-0.9157,-0.9157,-0.9158,-0.9158,-0.9036,-0.9025,-0.9035,-0.9032,-0.9038,-0.9041,-0.9033,-0.9047,-0.9043,-0.9044,-0.906,-0.9052,-0.9061,-0.9067,-0.9071,-0.9066,-0.9081,-0.9072,-0.907,-0.9067,-0.9063,-0.9135,-0.9066,-0.9067,-0.9067,-0.9067,-0.9067,0,-0.8956,-0.8965,-0.8962,-0.8967,-0.8964,-0.8987,-0.8993,-0.8989,-0.8982,-0.8989,-0.8988,-0.8982,-0.898,-0.8996,-0.8996,-0.8988,-0.8999,-0.8988,-0.8988,-0.899,-0.905,-0.9055,-0.8979,-0.8979,-0.8979,-0.8979,-0.8979,-0.8979,-0.8915,-0.8897,-0.891,-0.8897,-0.8906,-0.8899,-0.8901,-0.8904,-0.891,-0.8903,-0.8902,-0.8913,-0.8924,-0.8925,-0.8924,-0.8929,-0.8928,-0.8913,-0.8921,-0.8977,-0.8985,-0.8993,-0.8998,-0.8912,-0.8912,-0.8862,-0.8861,-0.8861]}]]